Preview of NWS' New Version of Forecast
This preview is not operational and should not be used for support decisions.

Regional Weather Roundup (RWR)

Issued by National Weather Service (NWS)

                            
000
ASUS43 KDMX 180201
RWRIA 

WEATHER ROUNDUP FOR IOWA
NATIONAL WEATHER SERVICE DES MOINES IA
900 PM CDT TUE SEP 17 2019

NOTE: "FAIR" INDICATES FEW OR NO CLOUDS BELOW 12,000 FEET WITH NO
SIGNIFICANT WEATHER AND/OR OBSTRUCTIONS TO VISIBILITY.

* - THESE STATIONS ARE NOT NWS STATIONS...THUS NOT UNDER NWS
QUALITY CONTROL.  THEY ALSO DO NOT REPORT WEATHER SUCH 
AS PRECIPITATION OR FOG.  

IAZ001>003-012>014-020>022-031>034-043>046-180300-
   NORTHWEST IOWA
  
CITY           SKY/WX    TMP DP  RH WIND       PRES   REMARKS
CARROLL *      CLEAR     73  70  88 S9        29.92R                  
CHEROKEE *     CLEAR     76  69  80 S8        29.89R                  
DENISON *      CLEAR     77  70  78 S12       29.92R                  
LE MARS *      CLEAR     79  70  73 SE10G17   29.84S HX  81           
SHELDON *        N/A     77  70  78 S13G20    29.85R                  
SIOUX CITY     CLEAR     78  68  71 SE13      29.85R HX  80           
SPENCER        CLEAR     78  68  71 SE12      29.90R HX  80           
STORM LAKE *   CLEAR     75  70  83 S12       29.89R                  
$$
 
IAZ055>058-069>071-079>083-090>094-180300-
   SOUTHWEST IOWA
  
CITY           SKY/WX    TMP DP  RH WIND       PRES   REMARKS
ATLANTIC *     CLEAR     77  70  78 S8        29.92R                  
CLARINDA *     CLEAR     77  72  83 S6G13     29.95R                  
COUNCIL BLFS * CLEAR     79  70  73 SE13G20   29.89R HX  81           
CRESTON *      CLEAR     75  70  83 SE9       29.97R                  
HARLAN  *      CLEAR     77  70  78 S6        29.92R                  
LAMONI         CLEAR     78  69  73 SE7       29.99R HX  80           
RED OAK *      PTCLDY    79  70  73 S8        29.93R HX  81           
SHENANDOAH *   CLEAR     79  70  73 SE9       29.91R HX  81           
$$
 
IAZ047>049-059>061-072>074-084-180300-
   CENTRAL IOWA
  
CITY           SKY/WX    TMP DP  RH WIND       PRES   REMARKS
AMES           CLEAR     77  73  87 SE9       29.96R                  
ANKENY *       CLEAR     79  73  83 SE8       29.98R HX  82           
BOONE *        CLEAR     77  77 100 SE10G16   29.96R                  
CHARITON *     CLEAR     75  72  88 SE6       29.99R                  
DES MOINES     PTCLDY    80  71  74 SE10      29.96R HX  84           
GRINNELL*      CLEAR     74  68  83 SE7       30.03R                  
KNOXVILLE *    CLEAR     77  75  94 SE9       29.99R                  
MARSHALLTOWN   CLEAR     74  67  78 SE15      29.99R                  
NEWTON *       CLEAR     77  73  88 SE9       29.99R                  
PELLA *        CLEAR     77  71  81 SE6       30.01R                  
PERRY *        FAIR      75  69  81 SE6       29.95R                  
$$
 
IAZ004>006-015-016-023>025-035-036-180300-
   NORTH CENTRAL IOWA
  
CITY           SKY/WX    TMP DP  RH WIND       PRES   REMARKS
ALGONA *       CLEAR     77  73  88 SE18G24   29.91S                  
CLARION *      CLEAR     77  73  88 SE14G21   29.96R                  
ESTHERVILLE    CLEAR     75  67  76 S13       29.89R                  
FORT DODGE *   CLEAR     79  72  79 SE12      29.94R HX  82           
MASON CITY     CLEAR     74  69  85 SE15      29.99R                  
FOREST CITY *  FAIR      75  72  88 SE16G22   29.96R                  
IOWA FALLS *     N/A     75  66  74 SE12      30.00R                  
$$

IAZ007>011-017>019-026>030-037>042-050>054-066-180300-
   NORTHEAST IOWA
  
CITY           SKY/WX    TMP DP  RH WIND       PRES   REMARKS
CEDAR RAPIDS   FAIR      70  67  90 SE7       30.03R                  
CHARLES CITY * FAIR      72  68  88 SE12G18   30.01R                  
CLINTON *      FAIR      69  67  93 E8        30.08R                  
DECORAH *      FAIR      68  68 100 MISG      30.03R                  
DUBUQUE        FAIR      69  67  93 SE14      30.07S                  
MONTICELLO *   FAIR      70  70 100 SE6       30.06R                  
OELWEIN *      CLEAR     70  70 100 SE12G18   30.04R                  
WATERLOO       FAIR      74  67  78 SE8       30.00R                  
$$
 
IAZ064-065-067-068-078-180300-
   EAST CENTRAL IOWA
  
CITY           SKY/WX    TMP DP  RH WIND       PRES   REMARKS
DAVENPORT      FAIR      71  66  84 SE8       30.08R                  
IOWA CITY      FAIR      73  66  78 SE6       30.05R                  
MUSCATINE *    FAIR      73  68  83 SE5       30.04S                  
QUAD CITIES    FAIR      71  67  87 E6        30.06R                  
$$
 
IAZ062-063-075>077-085>089-095>099-180300-
   SOUTHEAST IOWA
  
CITY           SKY/WX    TMP DP  RH WIND       PRES   REMARKS
BURLINGTON     CLEAR     74  66  76 SE6       30.04R                  
FAIRFIELD *    CLEAR     72  68  88 SE7       30.03R                  
FORT MADISON * CLEAR     73  70  88 E6        30.05R                  
KEOKUK *       CLEAR     75  72  88 E9        30.03R                  
OSKALOOSA *    FAIR      74  68  81 SE7       30.02R                  
OTTUMWA        CLEAR     75  69  81 SE12      30.01R                  
WASHINGTON *     N/A    N/A N/A N/A MISG        N/A                   
$$

ABBREVIATIONS USED IN REMARKS
   TC - TEMPERATURES IN CELSIUS
  WCI - WIND CHILL INDEX
   HX - HEAT INDEX
  VSB - VISIBILITY  
$$